User: anonymous   Login
Location: *
(51.1248°S, 108.4023°W)
Time: 05:26:55
(UTC+00:00)
Language:

Cosmos 2227 Rocket - Orbit

View from above orbital plane
View from above orbital plane
View from above satellite
View from above satellite

Ground track
Ground track

The orbit data is extracted from the following two-line orbital elements,

1 22285U 92093B   21263.20868345 -.00000163  00000-0 -59339-4 0  9997
2 22285  71.0215 187.9774 0006576 272.9428  87.0942 14.15062013482331
Epoch (UTC): 20 September 2021 05:00:30
Eccentricity: 0.0006576
inclination: 71.0215°
perigee height: 837 km
apogee height: 847 km
right ascension of ascending node: 187.9774°
argument of perigee: 272.9428°
revolutions per day: 14.15062013
mean anomaly at epoch: 87.0942°
orbit number at epoch: 48233

The dashed part of the orbit path shows where the satellite is in the earth's shadow,  

DLR